Wind_Speed
7 7 13 13 7 2 6 7 9 3 3 4 7 7 6 12 12 14 17 18 18 19 22 21 20 18 17 17 18 20 21 20 19 15 13 11 12 11 9 9 8 8 5 6
7 13 10 9 7 5 7 7 5 2 3 3 1 1 2 7 12 15 18 19 19 18 17 20 20 19 20 22 21 21 21 23 22 17 13 9 10 9 8 9 9 8 8 6
10 6 10 10 9 9 5 8 5 3 1 3 1 4 2 2 6 11 16 16 18 19 19 17 21 22 22 21 23 24 25 25 25 19 15 12 9 9 8 10 9 9 7 6
7 6 13 11 10 10 10 7 5 3 2 4 3 5 2 1 8 11 15 18 18 20 19 18 22 24 26 27 25 24 23 23 24 24 17 15 13 12 11 13 10 10 8 6
5 12 15 12 12 9 4 7 7 3 3 3 3 4 3 2 4 10 13 16 20 20 21 21 26 27 28 27 28 28 28 24 24 25 23 19 16 13 9 11 12 13 10 9
3 2 6 11 7 12 11 8 6 4 2 6 4 4 6 7 13 14 9 16 17 20 20 20 25 25 26 27 28 27 25 29 28 28 27 25 20 16 12 13 13 13 11 9
3 2 2 3 8 6 7 9 5 6 5 6 2 4 6 9 14 15 9 10 17 18 19 18 18 24 26 27 28 28 28 28 28 28 27 28 25 22 19 17 15 14 14 12
5 7 5 7 2 5 14 12 5 8 9 8 2 8 5 8 13 16 16 7 6 15 15 17 21 26 27 27 27 29 29 30 28 29 32 32 31 23 21 20 16 14 13 13
4 4 3 8 7 2 6 8 2 5 1 8 6 5 6 13 17 19 17 15 13 6 11 17 21 25 28 30 32 32 30 31 30 30 35 32 31 32 24 23 23 17 17 12
2 6 6 5 1 11 2 5 6 2 8 10 5 5 3 12 15 16 18 17 15 13 10 9 18 26 28 33 33 33 34 33 35 33 31 31 32 34 32 26 26 22 20 19
2 1 3 2 8 7 1 3 4 2 2 6 8 4 4 6 9 12 14 16 17 16 14 11 14 21 26 29 31 33 34 33 31 30 31 30 30 28 30 27 29 27 24 22
4 4 5 5 2 4 6 3 1 7 6 2 0 5 7 7 10 11 13 15 15 16 16 15 15 9 18 23 28 31 31 31 33 33 33 31 30 28 26 30 29 30 29 25
3 3 5 2 2 1 4 4 3 2 1 4 7 6 7 9 11 12 13 15 16 17 19 18 20 17 12 13 21 27 28 29 28 27 28 30 29 27 29 29 30 27 30 28
2 4 3 1 4 3 3 1 4 3 3 7 2 11 7 11 12 12 14 14 16 18 19 17 17 20 20 14 9 20 23 25 24 26 27 27 29 31 30 32 31 31 30 28
3 4 5 7 5 2 2 2 3 3 3 2 8 5 7 9 10 10 10 12 16 18 20 18 17 20 23 25 15 8 18 20 23 25 26 27 27 26 26 27 29 31 31 34
4 4 5 3 3 3 2 3 4 5 2 3 3 1 6 4 6 10 12 12 14 15 18 20 20 25 26 26 26 13 7 17 21 24 26 24 24 24 27 26 28 26 28 28
3 4 2 4 3 1 3 0 3 1 2 2 4 4 8 6 9 11 9 11 12 14 16 17 20 25 25 27 27 24 10 4 13 19 21 22 23 23 25 24 25 27 28 27
4 4 1 4 4 5 5 4 3 3 6 6 5 6 7 11 12 9 5 11 14 15 16 17 22 26 27 26 28 25 17 8 3 9 14 17 19 21 23 26 26 27 26 26
2 4 3 4 5 2 2 1 2 1 2 5 3 5 8 12 12 7 4 13 14 15 17 18 21 22 25 25 25 24 20 14 6 3 2 4 12 20 21 23 25 23 24 25
5 4 1 3 3 6 5 6 3 5 4 2 4 6 9 10 6 1 12 21 21 21 20 22 24 22 20 23 23 24 23 18 12 8 5 3 7 11 17 21 22 23 24 26
3 2 3 4 3 2 5 4 4 4 4 2 4 6 7 7 7 17 23 22 21 21 24 23 21 21 20 20 20 21 21 21 19 15 9 7 6 8 13 17 18 25 25 25
5 5 3 2 3 5 8 6 5 4 3 2 4 6 9 11 14 16 18 20 26 25 23 20 23 23 22 18 17 19 19 22 22 19 16 12 7 6 6 10 13 14 23 26
4 3 3 6 2 2 6 2 5 3 3 5 5 6 8 11 14 16 16 20 24 27 24 22 21 25 25 19 16 18 19 19 21 22 21 19 15 9 7 6 10 12 18 21
5 4 2 2 7 9 7 5 4 3 1 2 5 7 7 11 15 19 16 20 25 26 25 23 24 23 27 19 17 19 16 15 16 21 22 23 18 14 7 7 8 10 11 18
1 9 6 4 5 2 6 9 5 9 9 7 7 8 9 8 15 15 14 20 25 27 25 26 24 24 25 24 20 19 17 13 14 16 20 18 18 22 17 10 12 12 12 15
7 7 6 4 7 6 5 13 13 13 10 8 7 8 8 11 13 17 16 20 22 25 27 29 25 24 25 22 22 17 15 11 13 16 15 16 17 20 19 15 14 19 19 20
Wind_Direction
163 188 196 185 186 120 138 143 131 115 158 233 233 272 228 176 176 180 186 186 187 195 200 203 203 197 193 199 202 203 197 197 193 195 197 205 208 211 218 212 217 218 200 191
159 210 185 184 195 188 154 151 153 129 121 240 360 23 5 200 196 185 186 189 191 191 192 204 206 200 197 200 204 206 205 198 200 197 205 211 206 201 192 200 204 212 216 207
188 196 172 186 185 188 184 181 175 145 139 119 349 161 255 179 207 194 195 196 196 196 193 198 200 202 203 203 206 208 208 203 203 204 209 217 204 185 181 179 191 186 198 200
204 187 175 182 183 192 200 191 167 157 195 181 330 200 124 218 206 199 197 201 201 200 202 201 202 204 204 207 211 211 212 212 210 210 208 204 201 201 202 184 182 185 193 186
155 175 182 188 194 189 195 165 185 174 168 233 139 235 87 24 252 223 209 208 207 205 202 205 204 207 209 208 209 212 214 214 212 214 212 210 214 218 207 192 187 192 191 190
113 85 192 207 181 187 144 107 81 89 167 199 149 250 51 12 338 313 255 211 206 208 208 211 210 209 212 209 209 212 212 216 217 217 218 216 212 215 212 204 200 192 192 193
123 62 48 21 162 156 176 171 150 176 193 188 182 204 53 12 6 350 291 239 214 208 204 206 206 207 211 210 209 208 208 212 215 217 219 220 220 221 224 213 207 194 190 197
162 157 17 358 25 189 190 200 205 185 187 164 148 166 73 26 22 26 34 12 259 224 213 212 208 206 209 212 211 208 205 210 212 214 218 223 224 224 227 224 214 212 211 207
137 116 338 42 27 320 148 200 53 112 86 178 150 108 193 22 25 24 25 27 25 340 246 226 222 215 212 209 208 208 210 209 211 214 217 220 226 225 225 228 228 225 223 218
116 130 21 9 311 51 4 115 172 205 164 178 134 124 69 8 9 12 17 16 9 2 345 288 243 228 221 217 211 207 209 211 211 212 212 216 222 228 228 229 231 227 226 224
19 325 61 31 29 3 40 123 64 112 320 182 168 123 39 34 30 18 20 15 17 11 3 338 282 243 233 221 215 212 210 209 210 214 215 214 217 223 225 225 229 230 231 228
22 74 66 96 12 340 48 80 347 215 182 72 359 118 54 49 41 34 25 19 15 14 9 7 3 257 235 222 218 215 213 213 217 212 211 217 219 219 223 225 227 229 232 232
7 50 123 144 225 130 46 38 71 90 58 173 197 134 77 59 46 32 26 20 23 22 23 19 24 25 349 257 228 220 219 219 219 218 215 215 217 218 222 227 229 228 230 230
74 80 359 153 73 87 140 46 33 4 210 150 84 138 67 44 41 26 17 19 27 25 25 23 18 14 9 357 287 227 222 218 219 218 219 217 218 216 222 227 229 230 232 233
38 96 94 72 80 90 165 238 337 353 66 311 133 120 59 39 34 29 23 23 28 20 17 16 17 8 6 4 351 252 232 221 217 217 216 219 219 224 226 221 226 232 231 236
7 112 129 83 61 17 264 253 293 291 294 243 232 222 26 40 33 29 24 29 25 15 11 6 11 11 4 359 355 342 263 221 215 218 222 221 221 224 224 226 229 229 232 233
48 129 131 148 15 182 226 196 221 266 43 338 242 54 356 12 6 1 16 23 21 7 4 2 358 2 2 359 351 349 340 255 228 229 228 226 226 228 229 229 227 228 230 233
124 104 70 137 150 211 84 41 13 230 62 43 106 48 10 342 328 311 81 24 9 359 354 354 352 350 348 352 356 356 356 19 13 248 248 245 241 236 235 231 231 228 232 231
23 129 117 178 193 82 191 57 58 46 127 31 27 6 357 342 317 158 73 6 350 342 339 336 339 339 340 343 346 351 352 360 28 33 255 264 248 242 240 237 237 234 230 232
78 77 176 177 206 202 112 149 162 169 234 119 5 355 347 345 303 280 343 337 332 329 327 331 330 328 332 335 337 339 336 345 347 356 344 284 238 228 241 244 242 244 237 236
128 91 187 182 237 221 147 143 158 221 79 15 331 330 324 309 298 303 309 312 316 316 318 322 320 317 318 324 324 326 325 326 333 336 330 345 314 261 254 248 241 247 241 238
178 159 177 179 221 236 155 154 227 65 86 3 352 341 325 321 314 308 305 306 309 310 313 314 309 307 308 313 313 307 309 315 315 319 315 307 312 297 284 277 255 247 247 239
206 214 185 207 213 119 167 156 132 125 60 23 356 332 322 318 324 319 308 305 305 304 304 305 301 299 297 299 299 290 297 309 309 308 306 303 300 294 289 303 302 272 250 249
214 182 227 207 194 207 206 189 179 165 93 267 281 299 310 304 316 319 311 306 305 303 302 302 298 291 290 293 294 280 287 297 302 304 304 305 297 290 293 301 287 281 277 250
179 166 189 250 248 190 236 215 221 217 235 257 275 274 284 291 309 315 309 306 302 299 296 299 296 287 286 288 285 275 277 284 291 296 300 303 302 296 295 302 303 294 283 280
193 180 186 214 193 183 214 205 211 215 234 256 281 295 306 315 314 313 310 306 303 301 299 297 290 280 279 282 280 264 265 273 287 292 293 292 299 300 298 295 307 306 302 287
Height
779 785 788 783 783 783 783 784 788 786 779 783 783 783 783 786 790 796 799 801 804 807 811 816 820 825 829 833 836 839 841 845 850 853 856 859 860 861 864 866 868 870 872 873
785 786 782 778 782 785 785 788 790 786 782 786 785 789 788 786 787 789 794 797 799 803 807 814 818 823 827 829 834 838 841 843 847 851 855 858 859 860 862 864 867 869 871 872
782 775 774 779 783 788 787 789 793 789 786 784 786 795 794 790 788 789 790 791 794 797 802 808 815 820 824 828 831 835 838 841 844 849 852 856 859 860 861 863 866 868 870 871
775 767 775 779 781 780 791 783 786 789 793 798 790 798 794 791 790 789 790 790 790 793 798 803 809 815 820 824 829 833 837 841 843 846 850 853 857 859 861 862 865 867 869 871
775 773 776 780 777 776 783 779 784 788 794 795 796 795 788 792 790 787 787 787 786 787 791 796 802 808 814 819 824 829 832 838 842 844 847 851 855 858 859 861 863 866 868 870
771 766 768 768 769 770 775 785 793 797 796 808 796 793 801 797 798 788 777 781 783 785 788 793 798 804 809 814 820 826 830 833 838 841 845 848 851 855 858 860 861 863 866 869
776 779 775 773 775 777 777 785 807 816 816 806 806 800 809 801 797 789 781 774 777 781 785 790 794 799 804 809 815 820 824 828 833 838 842 845 849 852 855 858 860 862 864 867
784 796 783 779 780 774 776 778 790 813 813 803 808 806 816 802 794 787 780 777 775 778 783 787 791 795 799 805 810 815 817 822 828 832 836 842 846 850 853 855 858 860 862 864
788 795 785 785 782 783 788 788 786 798 813 793 797 808 802 800 797 792 791 787 787 783 782 784 788 791 794 797 801 807 813 816 821 826 830 836 841 845 849 852 855 858 860 862
789 795 794 789 785 783 780 789 792 790 810 805 809 817 814 817 812 804 799 797 792 789 787 784 782 784 787 790 795 800 805 810 814 819 825 830 835 839 843 848 852 854 857 859
791 785 800 792 808 812 793 793 798 790 800 794 805 820 818 821 818 815 809 804 796 791 788 786 782 780 782 787 791 795 799 804 810 816 820 826 829 835 839 843 846 850 854 856
801 797 812 814 812 811 806 810 805 783 806 810 792 821 819 818 815 815 813 810 804 797 790 785 779 778 778 782 787 790 794 800 804 807 813 819 825 829 835 837 840 845 849 852
801 810 814 819 809 807 811 811 812 810 803 805 794 818 818 819 817 816 816 812 807 803 796 790 785 785 784 782 784 787 792 795 800 806 810 813 818 823 827 832 836 840 843 847
804 815 812 801 811 813 816 815 811 805 799 810 808 816 819 823 824 822 819 816 812 808 802 800 797 795 792 788 785 787 790 793 797 802 805 809 812 815 819 824 830 834 838 842
808 818 822 825 823 821 820 817 816 814 816 810 816 816 824 829 830 830 827 822 817 817 812 808 806 804 799 794 789 787 789 792 794 797 800 803 806 812 816 819 823 827 831 834
821 828 826 834 830 828 826 823 823 822 821 821 821 823 831 831 831 832 831 827 826 826 823 818 811 808 804 801 796 792 789 791 793 794 796 799 802 806 809 813 817 821 824 827
827 828 830 830 836 830 830 828 825 823 825 827 823 836 835 833 836 836 837 835 835 833 830 825 821 815 811 807 802 797 793 791 792 793 794 796 798 801 804 807 810 813 816 820
830 835 839 837 837 836 832 833 832 828 835 836 836 844 845 844 840 836 841 840 838 836 833 830 826 822 816 812 808 801 797 793 792 792 794 795 796 797 799 801 802 805 810 812
831 831 841 835 831 835 834 837 836 832 832 844 844 847 848 846 836 834 841 844 844 840 837 834 830 827 821 816 813 807 802 798 794 794 793 793 793 793 795 796 798 799 802 804
833 832 828 836 827 823 827 836 839 839 831 846 847 847 848 847 834 825 838 841 840 841 838 833 829 826 823 819 815 811 806 803 801 796 794 791 790 790 791 792 792 794 795 796
834 834 831 830 827 824 829 836 840 833 838 848 850 850 850 849 850 846 843 839 841 839 835 832 829 826 823 820 818 814 810 805 802 799 794 791 790 788 786 786 786 787 788 789
829 834 834 835 832 832 831 837 835 840 844 847 847 849 849 849 846 845 842 838 836 834 833 830 827 823 821 819 818 814 812 808 803 801 798 795 790 787 785 782 780 780 781 782
835 830 830 829 823 829 831 831 837 839 840 842 845 846 847 846 844 843 840 837 834 831 829 826 825 821 817 815 815 811 809 807 803 800 796 794 790 785 784 776 777 775 775 775
836 838 834 833 821 827 831 833 835 837 839 843 844 843 844 843 841 839 837 834 831 827 823 822 820 816 812 812 809 808 806 805 802 799 795 791 788 783 776 775 774 772 770 769
829 834 832 832 829 832 830 829 832 838 840 841 840 840 840 840 837 837 835 832 828 822 819 818 815 811 807 806 804 803 803 801 800 797 792 788 784 782 775 767 767 768 764 765
825 821 825 816 814 817 819 826 832 836 836 837 837 836 836 836 834 833 830 826 822 817 814 809 806 803 801 799 798 797 798 796 795 793 790 787 782 779 772 767 759 761 759 762